This is the latest recevied weather packets stored in our database for station/object XE2KK-10. If no packets are shown the sender has not sent any weather packets the latest 10 day(s).
| Time | Temp. | Humidity | Pressure | Rain* | Wind** | Luminosity | Snow |
|---|---|---|---|---|---|---|---|
| 1777730952 | 13.33° C | 86% | 1021.7 hPa | 0 mm | - | 52 W/m² | - |
| 1777730652 | 13.33° C | 86% | 1021.8 hPa | 0 mm | - | 64 W/m² | - |
| 1777730352 | 13.33° C | 86% | 1021.8 hPa | 0 mm | - | 51 W/m² | - |
| 1777730053 | 13.33° C | 86% | 1021.8 hPa | 0 mm | - | 43 W/m² | - |
| 1777729152 | 12.78° C | 87% | 1021.9 hPa | 0 mm | - | 32 W/m² | - |
| 1777728852 | 12.78° C | 89% | 1021.8 hPa | 0 mm | - | 29 W/m² | - |
| 1777728552 | 12.78° C | 89% | 1021.8 hPa | 0 mm | - | 27 W/m² | - |
| 1777728258 | 12.22° C | 90% | 1021.5 hPa | 0 mm | - | 23 W/m² | - |
| 1777727952 | 12.22° C | 90% | 1021.6 hPa | 0 mm | - | 17 W/m² | - |
| 1777727653 | 12.22° C | 91% | 1021.6 hPa | 0 mm | - | 17 W/m² | - |
| 1777727353 | 12.22° C | 91% | 1021.4 hPa | 0 mm | - | 15 W/m² | - |
| 1777726752 | 12.22° C | 91% | 1021.3 hPa | 0 mm | - | 8 W/m² | - |
| 1777726153 | 12.22° C | 91% | 1021.3 hPa | 0 mm | - | 6 W/m² | - |
| 1777725853 | 12.22° C | 92% | 1021.1 hPa | 0 mm | - | 5 W/m² | - |
| 1777725553 | 12.22° C | 93% | 1020.8 hPa | 0 mm | - | 3 W/m² | - |
| 1777725252 | 12.22° C | 93% | 1020.6 hPa | 0 mm | - | 2 W/m² | - |
| 1777724952 | 12.22° C | 94% | 1020.7 hPa | 0 mm | - | 1 W/m² | - |
| 1777724353 | 12.22° C | 94% | 1020.5 hPa | 0 mm | - | 0 W/m² | - |
| 1777724052 | 12.22° C | 95% | 1020.7 hPa | 0 mm | - | 0 W/m² | - |
| 1777723752 | 12.22° C | 95% | 1020.3 hPa | 0 mm | - | 0 W/m² | - |
| 1777722252 | 12.78° C | 95% | 1019.9 hPa | 0 mm | - | 0 W/m² | - |
| 1777721952 | 12.78° C | 95% | 1019.8 hPa | 0 mm | - | 0 W/m² | - |
| 1777721652 | 13.33° C | 95% | 1020 hPa | 0 mm | - | 0 W/m² | - |
| 1777721352 | 13.33° C | 95% | 1020.1 hPa | 0 mm | - | 0 W/m² | - |
| 1777721053 | 13.33° C | 95% | 1019.8 hPa | 0 mm | - | 0 W/m² | - |
* Rain latest hour (hover to see other rain measurements)
** Current wind speed in m/s (hover to see current wind gust speed)